IONOSFERA-M 3

Last updated on Thu Oct 30 2025 00:02:32 GMT+0000 (Coordinated Universal Time)

1 64876U 25155A 25302.50719833 .00000123 00000+0 76003-4 0 9992 2 64876 98.5716 265.6399 0001825 129.2070 230.9270 14.21424363 13632
UTC large
Height (km)
Speed (km/s)
/
Latitude / Longitude
Inclination (degrees)
Orbital Period (minutes)
Azimuth
Elevation
Range (km)
Doppler Factor

Next 0 passes for location: London (51.5072 / 0.1276)

Sorry there are no passes over London.